Slayton, MN

12:13 PM CDT on March 30, 2017 (GMT -0500)
Slayton

Weather History for KDVP - May, 2014

Change the Weather History Date:

Friday, May 2, 2014

  Actual Average (KOTG) Record (KOTG)
Temperature  
Mean Temperature 47 °F -  
Max Temperature 60 °F 62 °F 92 °F (1987)
Min Temperature 34 °F 41 °F 25 °F (1976)
Degree Days  
Heating Degree Days 18    
Moisture  
Dew Point 34 °F    
Average Humidity 62    
Maximum Humidity 94    
Minimum Humidity 34    
Precipitation  
Precipitation 0.00 in - - ()
Sea Level Pressure  
Sea Level Pressure 29.76 in    
Wind  
Wind Speed 13 mph (West)    
Max Wind Speed 31 mph    
Max Gust Speed 37 mph    
Visibility 10 miles    
Events      
Averages and records for this station are not official NWS values.
T = Trace of Precipitation, MM = Missing Value Source: NWS Daily Summary

Daily Weather History Graph

Daily Weather History Graph

Search for Another Location

Airport or City:

Trip Planner

Search our weather history database for the weather conditions in past years. The results will help you decide how hot, cold, wet, or windy it might be!

Date:

Astronomy

May. 02, 2014 Rise Set
Actual Time 6:13 AM CDT 8:27 PM CDT
Civil Twilight 5:41 AM CDT 8:59 PM CDT
Nautical Twilight 5:02 AM CDT 9:39 PM CDT
Astronomical Twilight 4:18 AM CDT 10:22 PM CDT
Moon 8:49 AM CDT (5/2) 11:52 PM CDT (5/2)
Length of Visible Light 15h 17m
Length of Day
14h 14m
Waxing Crescent, 12% of the Moon is Illuminated
May 2
Waxing Crescent
May 6
First Quarter
May 14
Full
May 21
Last Quarter
May 28
New

Hourly Weather History & Observations

Time (CDT) Temp. Windchill Dew Point Humidity Pressure Visibility Wind Dir Wind Speed Gust Speed Precip Events Conditions
12:13 AM 38.5 °F 34.1 °F 35.2 °F 88% 29.90 in 10.0 mi West 5.8 mph - N/A   Clear
12:33 AM 39.2 °F 33.0 °F 35.6 °F 87% 29.89 in 10.0 mi West 9.2 mph - N/A   Clear
12:53 AM 39.2 °F 33.0 °F 35.4 °F 86% 29.89 in 10.0 mi West 9.2 mph - N/A   Clear
1:13 AM 38.7 °F 32.9 °F 35.2 °F 87% 29.89 in 10.0 mi West 8.1 mph - N/A   Clear
1:33 AM 38.5 °F 33.4 °F 34.5 °F 86% 29.88 in 10.0 mi WSW 6.9 mph - N/A   Clear
1:53 AM 37.9 °F 31.5 °F 34.9 °F 89% 29.87 in 10.0 mi WSW 9.2 mph - N/A   Clear
2:12 AM 37.0 °F 30.4 °F 33.6 °F 87% 29.87 in 10.0 mi WSW 9.2 mph - N/A   Clear
2:33 AM 34.7 °F 28.1 °F 32.9 °F 93% 29.85 in 10.0 mi WSW 8.1 mph - N/A   Clear
2:54 AM 34.9 °F 29.0 °F 33.3 °F 94% 29.85 in 10.0 mi WSW 6.9 mph - N/A   Clear
3:13 AM 34.9 °F 27.7 °F 33.3 °F 94% 29.84 in 10.0 mi SW 9.2 mph - N/A   Clear
3:33 AM 35.6 °F 29.9 °F 33.8 °F 93% 29.83 in 10.0 mi WSW 6.9 mph - N/A   Clear
3:53 AM 36.9 °F 29.1 °F 34.2 °F 90% 29.83 in 10.0 mi WSW 11.5 mph - N/A   Clear
4:12 AM 36.5 °F 29.2 °F 33.8 °F 90% 29.83 in 10.0 mi WSW 10.4 mph - N/A   Clear
4:33 AM 36.5 °F 28.2 °F 33.3 °F 88% 29.82 in 10.0 mi WSW 12.7 mph - N/A   Scattered Clouds
4:53 AM 37.0 °F 28.1 °F 33.1 °F 86% 29.82 in 10.0 mi WSW 15.0 mph - N/A   Clear
5:13 AM 37.4 °F 29.8 °F 32.9 °F 84% 29.81 in 10.0 mi WSW 11.5 mph - N/A   Mostly Cloudy
5:34 AM 37.2 °F 29.6 °F 33.1 °F 85% 29.80 in 10.0 mi WSW 11.5 mph - N/A   Mostly Cloudy
5:52 AM 38.8 °F 31.2 °F 33.4 °F 81% 29.80 in 10.0 mi WSW 12.7 mph - N/A   Overcast
6:13 AM 38.7 °F 30.9 °F 33.6 °F 82% 29.78 in 10.0 mi WSW 12.7 mph - N/A   Overcast
6:33 AM 38.7 °F 30.9 °F 33.8 °F 83% 29.78 in 10.0 mi SW 12.7 mph - N/A   Mostly Cloudy
6:52 AM 38.5 °F 32.7 °F 33.3 °F 81% 29.77 in 10.0 mi SW 8.1 mph - N/A   Clear
7:13 AM 39.0 °F 32.8 °F 33.4 °F 80% 29.76 in 10.0 mi SW 9.2 mph 12.7 mph N/A   Clear
7:34 AM 38.1 °F 29.8 °F 33.6 °F 84% 29.75 in 10.0 mi SW 13.8 mph - N/A   Scattered Clouds
7:53 AM 40.3 °F 32.2 °F 34.2 °F 79% 29.75 in 10.0 mi SW 15.0 mph - N/A   Mostly Cloudy
8:14 AM 42.3 °F 34.1 °F 34.2 °F 73% 29.73 in 10.0 mi SW 17.3 mph - N/A   Overcast
8:33 AM 43.3 °F 36.5 °F 34.7 °F 72% 29.72 in 10.0 mi SW 13.8 mph 20.7 mph N/A   Overcast
8:52 AM 44.2 °F 36.4 °F 34.3 °F 68% 29.70 in 10.0 mi SW 18.4 mph - N/A   Overcast
9:13 AM 46.8 °F - 36.0 °F 66% 29.70 in 10.0 mi SW 16.1 mph - N/A   Mostly Cloudy
9:32 AM 49.3 °F - 37.0 °F 63% 29.69 in 10.0 mi WSW 18.4 mph 24.2 mph N/A   Mostly Cloudy
9:52 AM 51.1 °F - 34.5 °F 53% 29.68 in 10.0 mi WSW 26.5 mph 31.1 mph N/A   Overcast
10:13 AM 50.0 °F - 35.8 °F 58% 29.68 in 10.0 mi West 23.0 mph 31.1 mph N/A   Overcast
10:33 AM 52.3 °F - 38.1 °F 58% 29.69 in 10.0 mi West 21.9 mph 27.6 mph N/A   Mostly Cloudy
10:52 AM 54.3 °F - 39.4 °F 57% 29.68 in 10.0 mi West 18.4 mph 25.3 mph N/A   Scattered Clouds
11:12 AM 55.8 °F - 40.1 °F 56% 29.69 in 10.0 mi West 20.7 mph 26.5 mph N/A   Scattered Clouds
11:33 AM 57.2 °F - 39.9 °F 52% 29.69 in 10.0 mi WNW 25.3 mph 31.1 mph N/A   Clear
11:53 AM 58.3 °F - 40.3 °F 51% 29.69 in 10.0 mi NW 24.2 mph 34.5 mph N/A   Clear
12:14 PM 57.6 °F - 41.2 °F 54% 29.70 in 10.0 mi NW 26.5 mph 33.4 mph N/A   Scattered Clouds
12:33 PM 58.8 °F - 41.9 °F 53% 29.70 in 10.0 mi WNW 26.5 mph 33.4 mph N/A   Scattered Clouds
12:53 PM 58.3 °F - 41.0 °F 53% 29.70 in 10.0 mi NW 28.8 mph 36.8 mph N/A   Scattered Clouds
1:13 PM 58.3 °F - 38.1 °F 47% 29.70 in 10.0 mi NW 21.9 mph 36.8 mph N/A   Scattered Clouds
1:34 PM 57.9 °F - 36.9 °F 45% 29.70 in 10.0 mi NW 31.1 mph 34.5 mph N/A   Scattered Clouds
1:52 PM 58.1 °F - 35.8 °F 43% 29.70 in 10.0 mi NW 29.9 mph 35.7 mph N/A   Scattered Clouds
2:12 PM 57.9 °F - 34.2 °F 41% 29.71 in 10.0 mi NW 26.5 mph 36.8 mph N/A   Scattered Clouds
2:33 PM 59.0 °F - 34.9 °F 40% 29.71 in 10.0 mi NW 26.5 mph 32.2 mph N/A   Clear
2:53 PM 59.2 °F - 32.4 °F 36% 29.71 in 10.0 mi NW 23.0 mph 35.7 mph N/A   Clear
3:12 PM 59.4 °F - 32.4 °F 36% 29.71 in 10.0 mi NNW 20.7 mph 31.1 mph N/A   Clear
3:33 PM 59.0 °F - 31.8 °F 36% 29.71 in 10.0 mi NNW 23.0 mph 33.4 mph N/A   Scattered Clouds
3:53 PM 60.1 °F - 33.1 °F 36% 29.71 in 10.0 mi NW 19.6 mph 33.4 mph N/A   Scattered Clouds
4:14 PM 59.5 °F - 32.7 °F 36% 29.71 in 10.0 mi NW 25.3 mph 28.8 mph N/A   Scattered Clouds
4:32 PM 59.7 °F - 32.2 °F 35% 29.71 in 10.0 mi NNW 19.6 mph 32.2 mph N/A   Scattered Clouds
4:51 PM 60.4 °F - 31.6 °F 34% 29.72 in 10.0 mi NW 24.2 mph 31.1 mph N/A   Scattered Clouds
5:13 PM 60.4 °F - 31.8 °F 34% 29.72 in 10.0 mi NW 19.6 mph 28.8 mph N/A   Scattered Clouds
5:33 PM 59.5 °F - 31.6 °F 35% 29.73 in 10.0 mi NNW 19.6 mph 31.1 mph N/A   Scattered Clouds
5:52 PM 58.8 °F - 31.3 °F 35% 29.74 in 10.0 mi NW 21.9 mph 27.6 mph N/A   Scattered Clouds
6:13 PM 58.3 °F - 32.2 °F 37% 29.73 in 10.0 mi NNW 19.6 mph - N/A   Clear
6:32 PM 57.9 °F - 31.8 °F 37% 29.74 in 10.0 mi NNW 17.3 mph 28.8 mph N/A   Clear
6:53 PM 58.1 °F - 30.7 °F 35% 29.75 in 10.0 mi NNW 16.1 mph 26.5 mph N/A   Clear
7:13 PM 56.8 °F - 30.9 °F 37% 29.75 in 10.0 mi NNW 16.1 mph 21.9 mph N/A   Clear
7:33 PM 56.3 °F - 31.5 °F 39% 29.75 in 10.0 mi NNW 10.4 mph - N/A   Clear
7:54 PM 55.6 °F - 32.0 °F 41% 29.76 in 10.0 mi NNW 11.5 mph - N/A   Clear
8:14 PM 54.5 °F - 32.4 °F 43% 29.77 in 10.0 mi NNW 10.4 mph - N/A   Clear
8:33 PM 53.6 °F - 33.1 °F 46% 29.77 in 10.0 mi NNW 8.1 mph - N/A   Clear
8:53 PM 49.8 °F - 34.7 °F 56% 29.78 in 10.0 mi NW 8.1 mph - N/A   Clear
9:13 PM 47.8 °F - 35.1 °F 61% 29.78 in 10.0 mi WNW 6.9 mph - N/A   Clear
9:33 PM 46.9 °F - 34.0 °F 61% 29.79 in 10.0 mi West 6.9 mph - N/A   Clear
9:53 PM 46.8 °F - 33.8 °F 61% 29.79 in 10.0 mi West 8.1 mph - N/A   Clear
10:14 PM 46.8 °F - 33.8 °F 61% 29.80 in 10.0 mi West 8.1 mph - N/A   Clear
10:33 PM 46.0 °F 41.4 °F 33.3 °F 61% 29.80 in 10.0 mi WNW 9.2 mph - N/A   Clear
10:53 PM 43.5 °F 38.9 °F 32.9 °F 66% 29.80 in 10.0 mi WNW 8.1 mph - N/A   Clear
11:12 PM 43.0 °F 37.7 °F 33.3 °F 69% 29.80 in 10.0 mi WNW 9.2 mph - N/A   Scattered Clouds
11:32 PM 43.5 °F 38.3 °F 32.9 °F 66% 29.80 in 10.0 mi WNW 9.2 mph - N/A   Scattered Clouds
11:53 PM 42.3 °F 36.8 °F 32.4 °F 68% 29.80 in 10.0 mi WNW 9.2 mph - N/A   Clear